Location: City of Moscow
(46.7306°N, 116.9989°W)
Time: 07:57:29
(UTC+00:00)

USA 234 - Pass Details

Date: 15 March 2026
Orbit: 1102 x 1106 km, 123.0° (Epoch: 4 January)

Event Time Altitude Azimuth Distance (km) Brightness Sun altitude
Exits shadow 05:33:31 63° 316° (NW) 1,223 3.5 -35.6°
Drops below altitude 10° 05:38:54 10° 308° (NW) 2,970 6.3 -36.2°
Sets 05:41:23 0° 308° (NW) 3,930 7.1 -36.5°
